Regional Weather Roundup
Issued by NWS

Home | Current Version | Previous Version | Text Only | Print | Product List | Glossary Off
Versions: 1 2 3 4 5 6 7 8 9 10 11 12 13 14 15 16 17 18 19 20 21 22 23 24 25 26 27 28 29 30 31 32 33 34 35 36 37 38 39 40 41 42 43 44 45 46 47 48 49 50

000
ASUS43 KBIS 250720
RWRND

NORTH DAKOTA REGIONAL WEATHER ROUNDUP
NATIONAL WEATHER SERVICE BISMARCK ND
100 AM CST THU DEC 25 2014

NOTE: "FAIR" INDICATES FEW OR NO CLOUDS BELOW 12,000 FEET WITH NO
SIGNIFICANT WEATHER AND/OR OBSTRUCTIONS TO VISIBILITY.


NDZ001>003-009>011-017-250800-
NORTHWEST NORTH DAKOTA

CITY           SKY/WX    TMP DP  RH WIND       PRES   REMARKS
WILLISTON      PTCLDY    20  17  88 CALM      29.55R
MINOT          FAIR      26  20  77 W13       29.48R WCI  15
MINOT AFB      PTCLDY    23  23  99 NW12      29.48R WCI  12
$$

NDZ018>021-031>035-040>046-250800-
SOUTHWEST NORTH DAKOTA

CITY           SKY/WX    TMP DP  RH WIND       PRES   REMARKS
BISMARCK       PTCLDY    28  24  85 W5        29.52R
DICKINSON      PTCLDY    26  23  88 NW6       29.48R WCI  19
GARRISON         N/A     25  21  85 NW13      29.49R WCI  14
HETTINGER ARPT CLOUDY    32  28  85 N6        29.49R
$$

NDZ004>008-012>016-024-026-027-054-250800-
NORTHEAST NORTH DAKOTA

CITY           SKY/WX    TMP DP  RH WIND       PRES   REMARKS
GRAND FORKS    MOCLDY    27  23  86 NW7       29.45R WCI  19
GRND FRKS AFB  MOCLDY    26  26 100 NW9       29.45R WCI  17
DEVILS LAKE    PTCLDY    19  16  86 W9        29.44R WCI   9
$$

NDZ022-023-025-028>030-036>039-047>053-250800-
SOUTHEAST NORTH DAKOTA

CITY           SKY/WX    TMP DP  RH WIND       PRES   REMARKS
FARGO          CLOUDY    30  27  88 S8        29.48R
JAMESTOWN      CLOUDY    28  24  85 W9        29.46R WCI  19
$$




USA.gov is the U.S. government's official web portal to all federal, state and local government web resources and services.